• Em Portugal
  • Lista de países
  • Para 7 dias
  • Temperatura da água
  • Mapas de satélite
  • Mapa do tempo
  • Widgets de tempo
  • user-avatar
    Iniciar Sessão

    Previsão horária em São Luís

    Hoje, 22 Janeiro, Segunda-feira

    Tempo Temperatura Precipitação Vento Pressão Humidade
    00:00 +27°C° 0,5 mm 3 m/s 757 mmHg 91%
    01:00 +27°C° 1,3 mm 3 m/s 757 mmHg 91%
    02:00 +27°C° 1,3 mm 3 m/s 757 mmHg 92%
    03:00 +26°C° 1,3 mm 3 m/s 756 mmHg 92%
    04:00 +26°C° 1,2 mm 3 m/s 756 mmHg 93%
    05:00 +26°C° 1,2 mm 3 m/s 756 mmHg 93%
    06:00 +26°C° 1,2 mm 2 m/s 756 mmHg 94%
    07:00 +27°C° 1,5 mm 3 m/s 757 mmHg 91%
    08:00 +28°C° 1,5 mm 3 m/s 757 mmHg 89%
    09:00 +29°C° 1,5 mm 3 m/s 757 mmHg 86%
    10:00 +29°C° 0,8 mm 3 m/s 757 mmHg 85%
    11:00 +30°C° 0,8 mm 3 m/s 757 mmHg 84%
    12:00 +30°C° 0,8 mm 3 m/s 757 mmHg 82%
    13:00 +30°C° 1,1 mm 3 m/s 756 mmHg 83%
    14:00 +30°C° 1,1 mm 3 m/s 756 mmHg 85%
    15:00 +29°C° 1,1 mm 3 m/s 755 mmHg 86%
    16:00 +29°C° 0,5 mm 3 m/s 755 mmHg 87%
    17:00 +28°C° 0,5 mm 3 m/s 755 mmHg 89%
    18:00 +28°C° 0,5 mm 3 m/s 755 mmHg 90%
    19:00 +27°C° 0,1 mm 3 m/s 756 mmHg 90%
    20:00 +27°C° 0,1 mm 3 m/s 756 mmHg 90%
    21:00 +27°C° 0,1 mm 3 m/s 757 mmHg 90%
    22:00 +27°C° 0,7 mm 3 m/s 757 mmHg 91%
    23:00 +27°C° 0,7 mm 3 m/s 757 mmHg 91%

    Amanhã, 23 Janeiro, Terça-feira

    Tempo Temperatura Precipitação Vento Pressão Humidade
    00:00 +27°C° 0,7 mm 3 m/s 757 mmHg 92%
    01:00 +27°C° 1,1 mm 4 m/s 756 mmHg 92%
    02:00 +27°C° 1,1 mm 4 m/s 756 mmHg 92%
    03:00 +27°C° 1,1 mm 4 m/s 755 mmHg 93%
    04:00 +26°C° 0,8 mm 3 m/s 755 mmHg 93%
    05:00 +26°C° 0,8 mm 3 m/s 755 mmHg 93%
    06:00 +26°C° 0,8 mm 3 m/s 755 mmHg 93%
    07:00 +27°C° 0,1 mm 3 m/s 756 mmHg 90%
    08:00 +28°C° 0,1 mm 3 m/s 757 mmHg 88%
    09:00 +29°C° 0,1 mm 4 m/s 757 mmHg 85%
    10:00 +30°C° 0,2 mm 4 m/s 757 mmHg 81%
    11:00 +32°C° 0,2 mm 4 m/s 757 mmHg 77%
    12:00 +32°C° 0,2 mm 4 m/s 757 mmHg 73%
    13:00 +32°C° 0,8 mm 4 m/s 756 mmHg 75%
    14:00 +30°C° 0,8 mm 4 m/s 755 mmHg 78%
    15:00 +30°C° 0,8 mm 4 m/s 755 mmHg 81%
    16:00 +29°C° 0,7 mm 4 m/s 755 mmHg 84%
    17:00 +28°C° 0,7 mm 4 m/s 755 mmHg 86%
    18:00 +28°C° 0,7 mm 3 m/s 755 mmHg 89%
    19:00 +27°C° 2,2 mm 4 m/s 756 mmHg 89%
    20:00 +27°C° 2,2 mm 4 m/s 756 mmHg 90%
    21:00 +27°C° 2,2 mm 4 m/s 757 mmHg 90%
    22:00 +27°C° 1,6 mm 4 m/s 757 mmHg 91%
    23:00 +27°C° 1,6 mm 4 m/s 757 mmHg 91%

    Depois de amanhã, 24 Janeiro, Quarta-feira

    Tempo Temperatura Precipitação Vento Pressão Humidade
    00:00 +26°C° 1,6 mm 3 m/s 757 mmHg 92%
    01:00 +26°C° 0,5 mm 3 m/s 756 mmHg 92%
    02:00 +26°C° 0,5 mm 3 m/s 756 mmHg 91%
    03:00 +26°C° 0,5 mm 3 m/s 755 mmHg 91%
    04:00 +26°C° 0,1 mm 3 m/s 755 mmHg 91%
    05:00 +26°C° 0,1 mm 3 m/s 755 mmHg 90%
    06:00 +26°C° 0,1 mm 2 m/s 756 mmHg 90%
    07:00 +27°C° 0,2 mm 3 m/s 756 mmHg 86%
    08:00 +28°C° 0,2 mm 3 m/s 757 mmHg 82%
    09:00 +30°C° 0,2 mm 3 m/s 758 mmHg 78%
    10:00 +30°C° 0,8 mm 3 m/s 757 mmHg 79%
    11:00 +30°C° 0,8 mm 3 m/s 757 mmHg 80%
    12:00 +30°C° 0,8 mm 3 m/s 757 mmHg 80%
    13:00 +30°C° 1,4 mm 3 m/s 756 mmHg 80%
    14:00 +30°C° 1,4 mm 3 m/s 755 mmHg 80%
    15:00 +30°C° 1,4 mm 3 m/s 755 mmHg 80%
    16:00 +29°C° 1 mm 3 m/s 755 mmHg 83%
    17:00 +28°C° 1 mm 3 m/s 755 mmHg 86%
    18:00 +27°C° 1 mm 3 m/s 755 mmHg 90%
    19:00 +27°C° 1,3 mm 3 m/s 756 mmHg 90%
    20:00 +27°C° 1,3 mm 3 m/s 756 mmHg 91%
    21:00 +27°C° 1,3 mm 3 m/s 757 mmHg 91%
    22:00 +27°C° 1,5 mm 3 m/s 757 mmHg 91%
    23:00 +26°C° 1,5 mm 3 m/s 757 mmHg 92%

    25 Janeiro, Quinta-feira

    Tempo Temperatura Precipitação Vento Pressão Humidade
    00:00 +26°C° 1,5 mm 3 m/s 757 mmHg 92%
    01:00 +26°C° 1 mm 3 m/s 756 mmHg 92%
    02:00 +26°C° 1 mm 3 m/s 756 mmHg 92%
    03:00 +26°C° 1 mm 2 m/s 755 mmHg 93%
    04:00 +26°C° 1 mm 2 m/s 755 mmHg 92%
    05:00 +26°C° 1 mm 2 m/s 756 mmHg 92%
    06:00 +26°C° 1 mm 2 m/s 756 mmHg 92%
    07:00 +26°C° 1 mm 2 m/s 757 mmHg 91%
    08:00 +27°C° 1 mm 2 m/s 757 mmHg 89%
    09:00 +28°C° 1 mm 2 m/s 758 mmHg 88%
    10:00 +28°C° 1,6 mm 2 m/s 758 mmHg 86%
    11:00 +29°C° 1,6 mm 2 m/s 757 mmHg 84%
    12:00 +29°C° 1,6 mm 3 m/s 757 mmHg 82%
    13:00 +29°C° 0,7 mm 2 m/s 756 mmHg 83%
    14:00 +29°C° 0,7 mm 2 m/s 756 mmHg 84%
    15:00 +28°C° 0,7 mm 2 m/s 755 mmHg 85%
    16:00 +28°C° 0,2 mm 2 m/s 755 mmHg 86%
    17:00 +27°C° 0,2 mm 2 m/s 755 mmHg 87%
    18:00 +27°C° 0,2 mm 2 m/s 755 mmHg 88%
    19:00 +27°C° 0,1 mm 2 m/s 756 mmHg 88%
    20:00 +27°C° 0,1 mm 2 m/s 756 mmHg 89%
    21:00 +27°C° 0,1 mm 2 m/s 757 mmHg 89%
    22:00 +27°C° 0,1 mm 2 m/s 757 mmHg 89%
    23:00 +27°C° 0,1 mm 2 m/s 757 mmHg 89%

    26 Janeiro, Sexta-feira

    Tempo Temperatura Precipitação Vento Pressão Humidade
    00:00 +27°C° 0,1 mm 2 m/s 757 mmHg 89%
    01:00 +26°C° 0 mm 2 m/s 756 mmHg 89%
    02:00 +26°C° 0 mm 2 m/s 756 mmHg 90%
    03:00 +26°C° 0 mm 2 m/s 755 mmHg 90%
    04:00 +26°C° 0 mm 2 m/s 755 mmHg 90%
    05:00 +26°C° 0 mm 2 m/s 756 mmHg 90%
    06:00 +26°C° 0 mm 2 m/s 756 mmHg 90%
    07:00 +27°C° 0,1 mm 2 m/s 756 mmHg 86%
    08:00 +28°C° 0,1 mm 2 m/s 757 mmHg 83%
    09:00 +29°C° 0,1 mm 2 m/s 757 mmHg 80%
    10:00 +30°C° 1 mm 2 m/s 757 mmHg 81%
    11:00 +30°C° 1 mm 3 m/s 757 mmHg 82%
    12:00 +30°C° 1 mm 3 m/s 756 mmHg 83%
    13:00 +30°C° 0,9 mm 3 m/s 756 mmHg 82%
    14:00 +30°C° 0,9 mm 3 m/s 755 mmHg 80%
    15:00 +30°C° 0,9 mm 3 m/s 755 mmHg 79%
    16:00 +30°C° 0,2 mm 3 m/s 755 mmHg 81%
    17:00 +29°C° 0,2 mm 3 m/s 755 mmHg 82%
    18:00 +28°C° 0,2 mm 3 m/s 755 mmHg 84%
    19:00 +28°C° 0 mm 3 m/s 755 mmHg 85%
    20:00 +28°C° 0 mm 3 m/s 756 mmHg 86%
    21:00 +27°C° 0 mm 3 m/s 756 mmHg 88%
    22:00 +27°C° 0,1 mm 3 m/s 756 mmHg 88%
    23:00 +27°C° 0,1 mm 3 m/s 756 mmHg 89%

    27 Janeiro, Sábado

    Tempo Temperatura Precipitação Vento Pressão Humidade
    00:00 +27°C° 0,1 mm 3 m/s 756 mmHg 90%
    01:00 +27°C° 0,6 mm 3 m/s 755 mmHg 91%
    02:00 +26°C° 0,6 mm 3 m/s 755 mmHg 92%
    03:00 +26°C° 0,6 mm 2 m/s 755 mmHg 94%
    04:00 +26°C° 1 mm 2 m/s 755 mmHg 94%
    05:00 +26°C° 1 mm 2 m/s 755 mmHg 94%
    06:00 +26°C° 1 mm 2 m/s 756 mmHg 94%
    07:00 +27°C° 1,7 mm 2 m/s 756 mmHg 93%
    08:00 +27°C° 1,7 mm 3 m/s 756 mmHg 92%
    09:00 +28°C° 1,7 mm 3 m/s 757 mmHg 91%
    10:00 +28°C° 1,8 mm 3 m/s 757 mmHg 89%
    11:00 +29°C° 1,8 mm 3 m/s 757 mmHg 87%
    12:00 +29°C° 1,8 mm 3 m/s 756 mmHg 86%
    13:00 +29°C° 1,4 mm 3 m/s 756 mmHg 84%
    14:00 +29°C° 1,4 mm 3 m/s 755 mmHg 83%
    15:00 +30°C° 1,4 mm 3 m/s 755 mmHg 82%
    16:00 +29°C° 0,6 mm 3 m/s 755 mmHg 84%
    17:00 +28°C° 0,6 mm 3 m/s 755 mmHg 87%
    18:00 +28°C° 0,6 mm 3 m/s 755 mmHg 89%
    19:00 +27°C° 0,3 mm 3 m/s 755 mmHg 90%
    20:00 +27°C° 0,3 mm 3 m/s 756 mmHg 92%
    21:00 +27°C° 0,3 mm 3 m/s 756 mmHg 93%
    22:00 +27°C° 0,7 mm 3 m/s 756 mmHg 93%
    23:00 +27°C° 0,7 mm 3 m/s 756 mmHg 94%
    Mostrar mais